Location: Paris
(48.6709°N, 2.3750°E)
Time: 12:00:21
(UTC+02:00)

ZACube-1 - Visible Passes

Search period start: 30 June 2022 00:00
Search period end: 10 July 2022 00:00
Orbit: 581 x 662 km, 97.6° (Epoch: 29 June)

Date Brightness Start Highest point End Pass type
(mag) Time Alt. Az. Time Alt. Az. Time Alt. Az.
02 Jul ? 04:31:59 10° NE 04:34:26 14° E 04:36:54 10° ESE visible
03 Jul ? 04:49:02 10° NE 04:52:27 21° E 04:55:53 10° SE visible
04 Jul ? 05:06:25 10° NNE 05:10:24 30° E 05:14:25 10° SSE visible
07 Jul ? 04:25:16 10° ENE 04:27:15 13° E 04:29:15 10° ESE visible
08 Jul ? 04:42:05 10° NE 04:45:16 19° E 04:48:27 10° SE visible
09 Jul ? 04:59:22 10° NE 05:03:14 27° E 05:07:06 10° SSE visible
